Eastern Oregon Regional At Pendleton Airport
KPDT : now visible

Airfield :











YOU CAN JOIN US ON...

 
LOGIN :

Register | Disclaimer

   EN    FR    IT 

 









Legend :    VFR   Marginal VFR   IFR   Intensive IFR   Very Intensive IFR
Visi :
Ceiling :
>= 8 km
>= 3000ft
5 to 8 km
1000 to 3000 ft
1500m to 5 km
500 to 1000 ft
800 to 1500m
200 to 500 ft
< 800m
< 200 ft
Symbols :   Thunderstorms  Fog  Heavy snow  Heavy precipitations  Wind > 20 kt






- Airport Elevation : 1497 ft


KPDT - Eastern Oregon Regional At Pendleton

CURRENT METAR :
  • 271253Z VRB05KT 10SM OVC100 15/04 A2980 RMK AO2 SLP077 T01500044

EXPIRED METARs :
  • 271153Z AUTO 12005KT 10SM FEW075 SCT110 15/04 A2981 RMK AO2 SLP078 T01500044 10189 20133 50000

TAF KPDT
Valid from the 27 at 12:00 until the 28 at 12:00 UTC


271120Z 2712/2812 VRB04KT P6SM SCT070 BKN100
FM271500 26009KT P6SM BKN070 BKN100
FM280100 27013KT P6SM -RA BKN050 BKN070
FM280400 25018G25KT P6SM -RA OVC030
FM280600 26020G27KT P6SM -RA OVC050
FM281100 25019G27KT P6SM OVC050
KZSE FIR / North America



MET'MAP, your aeronautical weather chart ! - Copyright ORBIFLY December 2007 - Disclaimer

ORBIFLY MET'MAP TEAM :

Programming & Development : Alexandra Zaïnal
Concept & original design : Baudouin d'Aumeries
Assistance for programming : Marc-Olivier Méhu
Technical & hardware support : Manuel Goepfert

Contact : metmap@orbifly.com




SOURCES & CREDITS :

   NOAA       Earth
Advisory